Theta_e
317 317 315 314 312 309 309 318 312 320 317 313 308 310 310 306 311 313 311 311 310 309 308 306 307 305 310 312 310 306 310 308 305 305 309 307 307 306 306 304 300 302 302 302
317 317 315 314 311 310 309 316 316 320 317 306 309 309 308 310 310 311 310 309 311 311 308 308 308 309 312 312 312 310 310 307 303 303 306 308 306 306 304 304 304 302 298 302
317 317 315 314 312 311 311 317 313 316 315 309 308 308 308 307 311 310 312 310 310 310 309 310 308 308 311 311 312 317 315 306 307 303 305 307 304 305 304 305 302 302 302 304
317 317 315 314 312 310 311 312 310 311 310 311 310 310 308 308 307 311 313 312 310 310 308 308 307 308 310 311 314 310 311 307 306 305 305 305 305 305 305 304 305 302 304 303
317 317 315 315 313 310 313 312 311 311 310 310 310 304 309 308 308 309 310 310 309 310 310 310 308 309 310 309 312 309 308 307 305 304 305 304 303 305 305 304 304 303 305 307
317 317 316 316 313 312 313 312 312 312 304 306 308 308 308 308 310 311 312 310 310 309 309 311 310 310 308 308 308 308 308 306 304 301 301 302 300 304 304 306 309 309 305 311
317 317 317 317 314 312 311 312 311 311 306 308 307 307 307 307 308 309 310 311 311 310 311 310 309 309 308 307 306 306 304 305 303 301 301 292 303 310 309 308 309 310 312 313
316 317 318 317 316 313 314 313 312 311 306 308 308 308 307 308 310 309 309 310 310 310 309 306 302 304 305 306 304 302 304 305 300 298 297 299 304 307 307 306 306 310 310 310
316 317 317 318 316 314 314 314 314 313 309 307 308 308 308 308 308 309 309 312 313 311 308 305 299 297 300 300 303 305 304 305 302 298 295 293 302 308 311 310 302 310 311 310
315 316 317 317 317 315 313 314 314 313 309 311 309 310 310 309 308 309 308 309 312 310 307 303 301 300 303 300 300 301 303 303 300 299 298 302 307 310 311 300 303 311 312 311
315 315 316 317 317 316 313 314 314 313 310 312 313 312 311 309 309 309 307 309 310 309 306 304 304 303 303 302 302 301 301 301 301 300 298 295 311 309 304 309 313 312 313 313
315 315 316 316 316 316 314 313 313 314 312 312 313 316 317 313 311 310 309 309 309 311 307 306 305 303 302 300 299 304 301 304 303 303 303 309 313 311 314 313 314 314 314 315
315 315 315 316 316 315 313 311 311 312 311 313 313 311 315 313 312 313 310 310 312 310 310 309 306 302 304 300 300 302 305 307 306 305 307 310 312 314 315 315 315 316 316 316
313 315 315 315 315 315 313 313 312 310 311 309 310 315 314 316 315 313 312 311 309 310 311 308 307 305 304 303 303 304 306 308 305 305 308 309 311 313 315 315 316 315 317 317
311 313 314 314 314 313 312 314 313 312 308 308 309 312 314 313 316 314 313 312 312 311 309 308 305 307 307 306 305 305 309 307 304 302 310 310 312 315 315 314 314 316 316 316
310 312 313 314 313 312 313 315 314 314 313 308 306 312 313 313 314 314 314 314 312 311 310 307 308 307 308 305 303 306 308 310 311 310 313 313 314 315 316 315 316 317 318 318
309 310 311 313 311 312 311 312 314 311 314 311 306 308 312 311 312 312 313 313 311 312 309 309 309 310 310 306 302 308 311 313 314 315 314 312 315 313 317 317 318 318 319 320
308 309 312 312 311 310 312 316 311 312 313 311 305 306 308 311 309 309 310 311 312 309 309 309 309 308 309 303 309 310 312 314 315 315 316 315 316 317 318 319 319 318 318 319
308 310 312 313 312 313 315 314 312 315 313 307 307 305 302 312 308 309 310 310 307 308 308 308 308 306 303 308 310 312 313 314 314 315 315 317 316 317 318 318 319 317 317 318
310 311 312 310 314 317 316 314 311 311 310 310 308 309 306 310 308 307 308 308 305 303 306 310 307 305 310 312 314 315 316 316 315 312 313 315 316 317 317 316 316 316 316 316
310 309 310 313 313 312 311 308 307 308 305 307 308 309 307 311 307 306 307 305 305 299 304 305 303 304 312 314 316 318 317 317 316 317 318 320 319 317 315 315 316 316 317 316
307 308 309 310 311 307 305 303 304 304 304 307 307 308 310 309 311 308 306 303 303 297 307 303 300 308 312 314 314 315 317 317 318 320 319 319 319 319 317 316 316 316 317 317
310 308 306 306 305 295 299 297 301 301 306 307 307 307 310 309 311 306 306 300 300 307 303 301 305 311 312 314 314 316 319 319 320 320 319 320 318 319 316 315 316 316 315 316
305 304 289 299 299 301 303 304 305 309 309 308 309 307 309 308 307 306 300 303 305 299 297 299 307 311 313 313 315 316 317 319 319 318 318 317 315 316 316 316 316 315 314 315
304 304 293 300 305 306 307 308 308 310 311 310 308 307 309 306 304 304 302 300 297 299 299 306 311 314 313 314 316 317 318 320 318 318 317 317 317 315 315 316 315 315 315 315
306 305 301 306 304 305 306 307 307 311 310 311 312 306 304 301 303 300 298 298 297 302 307 311 312 314 315 315 317 318 320 320 319 319 318 317 317 314 315 316 314 314 314 314
302 302 307 306 306 305 307 309 310 311 309 306 306 301 299 303 300 298 303 302 305 310 311 312 313 314 315 316 319 320 320 319 319 319 318 316 318 316 314 310 312 313 313 314
Wind_Speed
21 23 25 24 24 24 1 0 3 3 3 2 1 3 3 2 4 1 3 1 3 3 3 3 2 4 2 5 5 7 6 3 3 1 4 1 2 2 3 3 2 1 3 3
21 23 25 27 23 18 3 2 2 2 3 3 2 2 3 4 3 3 4 2 3 3 4 4 1 2 2 6 3 6 9 3 4 4 3 3 4 3 2 4 1 5 4 3
21 22 25 27 24 18 3 1 4 1 2 1 2 1 2 3 1 0 1 2 2 3 3 5 4 2 3 4 3 5 2 3 3 6 2 2 4 6 5 5 4 3 8 10
21 22 25 25 26 14 2 3 2 2 5 5 4 1 2 3 1 1 3 3 4 2 3 2 3 1 0 2 4 2 3 2 2 1 1 3 3 6 8 8 5 8 11 6
20 21 24 25 28 15 2 1 0 1 2 1 5 3 3 3 2 3 2 4 3 2 3 1 4 2 0 2 3 3 4 1 0 2 2 4 6 7 8 8 5 8 9 10
18 20 22 22 26 15 3 2 0 3 1 2 4 3 1 1 2 6 5 7 7 9 4 3 5 5 5 4 4 3 2 5 4 7 3 2 9 10 9 4 2 4 7 3
17 18 19 19 20 14 2 2 2 2 2 1 1 1 1 2 1 4 3 4 3 2 0 3 3 5 5 4 7 4 3 3 0 4 2 9 5 5 6 3 1 3 2 2
16 17 18 18 17 19 2 1 2 2 3 0 2 2 2 3 4 4 4 4 4 1 3 1 1 1 1 4 7 2 3 4 3 4 6 4 3 2 0 2 3 2 3 2
15 16 18 17 17 18 1 2 2 2 1 2 1 2 2 2 2 3 2 3 2 2 3 2 3 3 1 3 3 3 6 4 4 3 4 5 4 3 5 3 6 3 1 0
13 15 16 17 17 16 3 2 3 2 0 1 1 2 2 2 2 2 0 3 1 2 2 2 3 3 1 3 2 1 2 2 5 4 5 1 2 4 1 5 4 3 1 4
13 13 15 16 17 16 7 1 4 2 1 1 1 1 2 2 1 2 3 3 2 2 3 2 3 2 2 2 0 0 1 2 2 2 3 5 3 2 3 6 1 3 6 8
12 13 13 15 15 15 10 1 2 2 2 3 3 4 4 3 1 3 1 3 2 2 3 2 2 3 3 1 3 1 3 2 2 4 3 2 1 3 4 4 7 9 9 13
11 12 13 14 14 14 10 2 3 2 1 2 2 3 4 2 2 2 1 2 3 3 2 3 2 2 1 2 2 1 3 2 2 4 2 4 5 4 6 6 10 13 15 17
12 12 13 13 13 14 10 1 3 1 1 1 3 3 2 4 2 4 3 6 5 5 0 2 2 1 2 1 2 2 3 3 1 4 5 6 8 9 8 10 13 15 17 19
11 13 13 14 13 13 5 1 2 1 3 1 2 2 3 2 4 9 7 6 4 2 2 2 2 2 2 2 1 2 3 1 4 5 7 6 10 10 9 14 18 19 20 21
11 12 14 14 12 12 3 2 3 3 2 2 3 2 2 3 5 8 8 5 4 2 2 3 3 2 2 1 1 1 2 4 5 4 4 8 14 15 17 16 18 20 21 21
12 13 14 12 10 4 2 2 3 2 3 1 2 3 2 2 2 3 3 4 3 3 2 2 2 2 2 1 2 2 3 5 6 6 6 11 11 15 19 19 20 20 20 20
12 14 14 13 10 4 3 1 0 5 1 1 2 2 2 3 2 2 3 2 1 4 2 2 1 3 1 3 4 5 6 6 7 7 7 13 16 17 18 18 18 20 20 20
12 14 16 2 2 2 2 6 5 1 2 1 1 4 4 1 2 2 2 2 2 1 1 2 2 1 3 3 4 4 4 5 10 12 14 15 15 19 20 20 21 21 22 22
10 3 2 2 2 3 4 2 1 1 1 0 2 0 3 1 1 3 2 2 2 2 3 1 1 2 4 6 6 7 7 8 9 12 14 17 17 17 19 19 18 16 16 17
2 1 1 3 4 2 0 1 2 1 3 3 1 3 3 1 2 3 2 3 1 2 3 2 1 2 3 2 4 5 6 7 10 9 12 13 14 16 17 19 17 16 16 15
2 1 2 2 2 1 3 2 1 4 2 4 4 3 0 3 0 3 1 2 2 2 1 2 2 2 3 4 7 9 9 10 12 11 12 14 15 15 16 15 15 16 16 16
1 2 2 1 2 2 5 7 4 3 5 5 5 4 2 3 2 4 2 3 2 2 2 2 2 1 4 4 6 9 10 10 11 11 12 13 15 17 14 15 15 17 15 14
1 3 1 4 4 4 4 3 1 1 2 7 5 4 1 2 3 2 3 2 3 3 3 2 1 2 5 6 5 7 11 10 10 10 12 13 14 15 15 14 14 15 15 15
1 2 3 4 2 3 3 2 2 1 4 6 5 4 1 3 4 1 3 4 3 3 2 1 1 3 5 7 7 8 8 8 7 9 11 12 15 15 14 14 14 14 14 13
2 2 2 2 3 1 1 3 3 4 5 3 2 4 3 2 3 4 3 4 3 3 2 1 2 4 5 6 6 7 5 5 6 8 9 11 14 13 13 13 14 14 14 14
2 3 3 4 4 4 2 1 1 4 5 5 3 4 2 4 2 3 3 3 4 2 2 2 3 4 6 6 6 5 4 4 7 7 9 11 13 12 12 15 15 13 13 13
Wind_Direction
341 344 348 348 348 343 344 307 109 55 233 130 2 200 215 301 279 218 263 236 85 107 113 121 149 175 286 352 177 178 176 176 213 75 18 354 324 92 225 267 199 118 301 259
343 345 350 352 352 356 318 77 87 125 283 178 197 261 267 257 286 355 355 74 29 54 103 114 110 138 71 15 170 173 178 187 147 147 161 211 235 132 104 103 142 199 260 267
344 348 352 352 353 350 264 165 124 97 60 18 149 14 298 284 7 101 39 82 129 122 86 39 128 129 43 27 83 51 129 132 235 272 10 95 180 176 186 247 235 253 248 280
345 350 355 351 354 349 271 6 95 0 174 199 191 201 310 295 211 51 30 98 56 96 114 102 95 85 357 94 14 47 331 153 218 190 182 206 243 211 195 222 261 252 314 257
346 351 358 354 355 350 73 21 187 128 87 108 161 161 206 230 145 333 43 109 90 78 117 35 161 156 48 17 25 50 1 129 193 263 211 241 254 251 242 242 234 253 267 271
346 351 360 358 2 351 49 21 262 285 36 127 178 167 313 215 164 51 56 111 97 88 70 60 48 60 72 56 18 20 327 158 182 250 1 292 258 256 249 234 219 279 254 5
346 350 356 359 9 17 350 30 291 286 109 183 127 170 128 63 8 128 70 66 104 77 287 136 121 63 68 98 39 255 156 120 237 275 201 249 54 352 241 239 141 195 157 118
346 350 356 359 3 11 10 15 313 345 107 16 121 88 90 101 70 73 81 48 24 343 61 92 2 85 124 78 37 63 258 159 156 241 227 338 204 157 156 251 165 172 155 141
346 350 356 358 2 6 316 32 308 316 199 84 325 65 22 113 94 113 84 61 21 87 68 95 206 234 55 170 144 75 93 80 224 161 240 251 73 109 4 167 253 164 217 132
344 348 351 355 0 2 342 26 4 285 20 69 238 87 83 108 100 102 336 358 99 348 112 142 190 179 303 209 187 147 102 70 224 205 250 264 51 354 217 234 41 150 297 316
339 344 347 351 356 360 358 7 9 320 318 348 293 15 126 133 47 172 98 186 151 99 124 193 151 208 111 192 85 254 275 236 181 167 247 251 33 135 304 358 272 258 293 300
337 340 343 346 349 355 357 332 32 325 257 4 312 304 310 337 344 130 109 31 110 116 112 174 143 161 178 180 189 146 216 313 352 254 7 24 329 48 348 281 280 280 276 305
337 337 340 344 344 351 0 312 330 261 305 172 208 91 16 105 24 303 227 176 130 140 2 125 96 148 203 186 178 208 152 158 271 275 134 249 250 246 269 271 272 284 286 290
340 340 337 340 341 341 347 328 0 303 34 168 119 340 78 342 68 62 35 117 110 97 41 78 88 95 241 110 56 287 27 182 216 266 265 283 260 241 259 293 295 290 286 288
332 336 335 335 338 339 323 235 44 11 321 19 119 291 26 335 83 81 85 107 108 79 107 83 84 92 179 86 213 226 189 94 288 306 311 279 276 281 300 294 295 295 294 293
326 326 329 328 331 340 270 207 151 32 350 284 161 12 13 73 80 79 66 62 73 71 72 82 100 74 294 198 242 77 233 234 251 288 334 280 287 291 289 288 294 295 293 287
314 315 317 315 317 324 277 354 41 139 315 270 133 137 52 346 85 60 53 46 60 28 94 77 87 111 314 135 245 182 296 310 298 275 295 296 297 299 305 300 298 298 291 289
302 306 307 305 303 237 263 99 125 176 113 314 151 117 170 4 102 109 356 75 67 34 70 136 80 144 279 227 237 269 282 292 299 315 304 282 297 298 299 304 305 303 300 301
298 302 302 283 218 208 73 107 135 70 304 206 228 174 160 68 84 71 112 354 106 17 106 82 258 140 222 213 237 273 306 309 311 314 310 311 309 309 313 317 315 312 306 306
298 291 235 164 100 332 145 179 197 154 21 39 238 67 138 203 143 101 158 27 72 174 73 217 261 257 282 261 254 276 296 308 318 315 320 319 316 319 316 313 309 302 300 300
198 197 154 12 322 191 216 176 221 160 216 180 165 213 134 101 143 109 1 109 87 196 110 269 187 240 244 8 313 316 303 300 305 300 298 306 311 316 317 316 315 311 306 306
312 308 282 261 184 125 205 193 165 219 220 167 173 149 88 116 165 111 105 105 189 156 129 225 214 254 282 304 327 330 335 333 325 330 326 324 323 328 323 313 314 317 317 315
168 200 162 154 148 147 204 182 189 214 172 167 165 139 115 141 98 84 148 154 132 146 196 226 237 299 295 323 323 326 337 340 340 344 335 335 342 338 328 325 326 318 317 319
191 161 56 208 181 232 202 203 163 115 166 152 141 112 99 90 95 114 141 87 179 172 200 205 189 263 309 313 311 333 337 345 348 342 344 354 348 343 338 334 332 335 333 330
188 185 210 224 277 260 258 251 264 194 148 149 123 90 95 90 115 76 119 165 190 217 177 194 232 281 299 304 332 344 340 348 348 349 353 355 348 347 340 349 348 343 346 349
244 222 259 216 264 251 215 217 235 169 162 136 94 116 127 105 131 165 181 172 190 145 204 218 280 293 306 315 337 342 342 350 347 357 3 355 355 346 341 350 355 351 350 356
212 227 239 267 278 275 295 295 178 154 170 164 143 133 100 122 134 163 198 193 145 186 182 239 263 291 309 321 344 4 8 17 359 9 20 3 2 351 2 4 356 358 355 4